| time (UTC) | temp F | wind direction | speed MPH | gust MPH | rain 1hr in | rain 24hr in | rain mn in | humidity % | barometer mb |
| 20260901063113 | 59 | 316 | 0.0 | 1.0 | 0.00 | 0.00 | 0.00 | 92 | 1006.6 |
| 20260901061515 | 58 | 284 | 0.0 | 2.0 | 0.00 | 0.00 | 0.00 | 94 | 1006.5 |
| 20260901060011 | 58 | 285 | 0.0 | 1.0 | 0.00 | 0.00 | 0.00 | 95 | 1006.4 |
| 20260901054510 | 57 | 249 | 0.0 | 1.0 | 0.00 | 0.00 | 0.00 | 96 | 1006.4 |
| 20260901051511 | 56 | 139 | 0.0 | 0.0 | 0.00 | 0.00 | 0.00 | 95 | 1006.2 |
| 20260901050010 | 55 | 140 | 0.0 | 0.0 | 0.00 | 0.00 | 0.00 | 96 | 1006.3 |
| 20260901044507 | 0 | 0.0 | 0.0 | 0.00 | 0.00 | 0.00 | 1006.3 | ||
| 20260901043103 | 0 | 0.0 | 0.0 | 0.00 | 0.00 | 0.00 | 1006.3 | ||
| 20260901041559 | 0 | 0.0 | 0.0 | 0.00 | 0.00 | 0.00 | 1006.3 | ||
| 20260901034550 | 0 | 0.0 | 0.0 | 0.00 | 0.00 | 0.00 | 1006.4 | ||
| 20260901033047 | 0 | 0.0 | 0.0 | 0.00 | 0.00 | 0.00 | 1006.2 | ||
| 20260901031544 | 0 | 0.0 | 0.0 | 0.00 | 0.00 | 0.00 | 1006.1 | ||
| 20260901030041 | 56 | 139 | 0.0 | 0.0 | 0.00 | 0.00 | 0.00 | 92 | 1006.2 |
| 20260901024548 | 56 | 140 | 0.0 | 0.0 | 0.00 | 0.00 | 0.00 | 93 | 1006.2 |
| 20260901023047 | 56 | 139 | 0.0 | 0.0 | 0.00 | 0.00 | 0.00 | 93 | 1006.1 |
| 20260901021555 | 56 | 136 | 0.0 | 0.0 | 0.00 | 0.06 | 0.00 | 92 | 1006.1 |
| 20260901020039 | 56 | 136 | 0.0 | 0.0 | 0.00 | 0.06 | 0.00 | 92 | 1006.0 |
| 20260901014538 | 56 | 136 | 0.0 | 0.0 | 0.00 | 0.06 | 0.00 | 92 | 1006.1 |
| 20260901013136 | 57 | 139 | 0.0 | 0.0 | 0.00 | 0.06 | 0.00 | 92 | 1006.0 |
| 20260901011535 | 56 | 140 | 0.0 | 0.0 | 0.00 | 0.06 | 0.00 | 91 | 1006.1 |
| 20260901010037 | 57 | 139 | 0.0 | 0.0 | 0.00 | 0.06 | 0.00 | 90 | 1006.2 |
| 20260901004531 | 57 | 140 | 0.0 | 0.0 | 0.00 | 0.06 | 0.00 | 89 | 1006.2 |
| 20260901003130 | 57 | 140 | 0.0 | 0.0 | 0.00 | 0.06 | 0.00 | 89 | 1006.2 |
| 20260901001532 | 57 | 139 | 0.0 | 0.0 | 0.00 | 0.06 | 0.00 | 89 | 1006.2 |
| 20260901000028 | 57 | 140 | 0.0 | 0.0 | 0.00 | 0.06 | 0.00 | 89 | 1006.2 |
| 20260831234532 | 57 | 139 | 0.0 | 0.0 | 0.00 | 0.06 | 0.00 | 89 | 1006.3 |
| 20260831233026 | 58 | 140 | 0.0 | 0.0 | 0.00 | 0.06 | 0.00 | 88 | 1006.2 |
| 20260831231536 | 57 | 139 | 0.0 | 0.0 | 0.00 | 0.06 | 0.00 | 88 | 1006.2 |
| 20260831230029 | 58 | 143 | 0.0 | 0.0 | 0.00 | 0.06 | 0.00 | 87 | 1006.2 |
| 20260831224544 | 59 | 143 | 0.0 | 0.0 | 0.00 | 0.06 | 0.00 | 86 | 1006.2 |
| 20260831223024 | 59 | 142 | 0.0 | 0.0 | 0.00 | 0.06 | 0.00 | 86 | 1006.2 |
| 20260831221521 | 59 | 142 | 0.0 | 0.0 | 0.00 | 0.07 | 0.00 | 85 | 1006.3 |
| 20260831220021 | 59 | 143 | 0.0 | 0.0 | 0.00 | 0.07 | 0.00 | 86 | 1006.3 |
| 20260831214520 | 58 | 212 | 0.0 | 0.0 | 0.00 | 0.07 | 0.00 | 86 | 1006.2 |
| 20260831213021 | 59 | 212 | 0.0 | 0.0 | 0.00 | 0.07 | 0.00 | 85 | 1006.1 |
| 20260831211518 | 59 | 212 | 0.0 | 0.0 | 0.00 | 0.07 | 0.00 | 85 | 1006.1 |
| 20260831210018 | 59 | 212 | 0.0 | 0.0 | 0.00 | 0.07 | 0.00 | 87 | 1006.1 |
| 20260831204518 | 58 | 212 | 0.0 | 0.0 | 0.00 | 0.07 | 0.00 | 88 | 1006.0 |
| 20260831203028 | 58 | 212 | 0.0 | 0.0 | 0.00 | 0.07 | 0.00 | 88 | 1006.0 |
| 20260831201514 | 58 | 212 | 0.0 | 0.0 | 0.00 | 0.07 | 0.00 | 88 | 1006.0 |
| 20260831200012 | 59 | 212 | 0.0 | 0.0 | 0.00 | 0.07 | 0.00 | 87 | 1006.0 |
| 20260831194511 | 59 | 212 | 0.0 | 0.0 | 0.00 | 0.07 | 0.00 | 87 | 1006.1 |
| 20260831193010 | 59 | 212 | 0.0 | 0.0 | 0.00 | 0.07 | 0.00 | 84 | 1006.0 |
| 20260831191529 | 60 | 212 | 0.0 | 0.0 | 0.00 | 0.07 | 0.00 | 84 | 1005.9 |
| 20260831190007 | 60 | 212 | 0.0 | 0.0 | 0.00 | 0.07 | 0.00 | 83 | 1005.9 |
| 20260831184507 | 61 | 212 | 0.0 | 0.0 | 0.00 | 0.07 | 0.00 | 82 | 1006.0 |
| 20260831183005 | 61 | 212 | 0.0 | 0.0 | 0.00 | 0.07 | 0.00 | 82 | 1006.1 |
| 20260831181502 | 60 | 221 | 0.0 | 0.0 | 0.00 | 0.07 | 0.00 | 84 | 1006.0 |
| 20260831180100 | 61 | 221 | 0.0 | 0.0 | 0.00 | 0.07 | 0.00 | 83 | 1005.8 |
| 20260831174600 | 61 | 221 | 0.0 | 0.0 | 0.00 | 0.07 | 0.00 | 82 | 1005.7 |
| 20260831173056 | 62 | 222 | 0.0 | 0.0 | 0.00 | 0.07 | 0.00 | 83 | 1005.8 |
| 20260831171554 | 63 | 222 | 0.0 | 0.0 | 0.00 | 0.07 | 0.00 | 81 | 1005.8 |
| 20260831170101 | 63 | 222 | 0.0 | 0.0 | 0.00 | 0.07 | 0.00 | 80 | 1005.8 |
| 20260831164553 | 64 | 222 | 0.0 | 0.0 | 0.00 | 0.07 | 0.00 | 78 | 1005.8 |
| 20260831163053 | 64 | 222 | 0.0 | 0.0 | 0.00 | 0.07 | 0.00 | 75 | 1005.8 |
| 20260831161552 | 64 | 222 | 0.0 | 0.0 | 0.00 | 0.07 | 0.00 | 75 | 1005.8 |
| 20260831160052 | 64 | 212 | 0.0 | 1.0 | 0.00 | 0.07 | 0.00 | 75 | 1005.8 |
| 20260831154615 | 64 | 217 | 0.0 | 3.0 | 0.00 | 0.07 | 0.00 | 75 | 1005.8 |
| 20260831153049 | 64 | 200 | 0.0 | 5.0 | 0.00 | 0.07 | 0.00 | 76 | 1005.8 |
| 20260831151607 | 64 | 180 | 0.0 | 3.0 | 0.00 | 0.07 | 0.00 | 77 | 1005.7 |
| 20260831150050 | 64 | 155 | 0.0 | 4.0 | 0.00 | 0.07 | 0.00 | 76 | 1005.7 |
| 20260831144548 | 64 | 201 | 2.0 | 6.0 | 0.00 | 0.07 | 0.00 | 76 | 1005.7 |
| 20260831143148 | 64 | 170 | 1.0 | 6.0 | 0.00 | 0.07 | 0.00 | 76 | 1005.7 |
| 20260831141548 | 64 | 198 | 2.0 | 10.0 | 0.00 | 0.08 | 0.00 | 76 | 1005.6 |
| 20260831140047 | 64 | 203 | 2.0 | 8.0 | 0.00 | 0.08 | 0.00 | 76 | 1005.6 |
| 20260831134555 | 64 | 221 | 0.0 | 5.0 | 0.00 | 0.08 | 0.00 | 76 | 1005.7 |
| 20260831133044 | 64 | 232 | 2.0 | 7.0 | 0.00 | 0.08 | 0.00 | 75 | 1005.8 |
| 20260831131545 | 64 | 203 | 2.0 | 5.0 | 0.00 | 0.08 | 0.00 | 77 | 1005.8 |
| 20260831130046 | 63 | 212 | 1.0 | 3.0 | 0.00 | 0.08 | 0.00 | 79 | 1005.7 |
| 20260831124548 | 63 | 214 | 3.0 | 7.0 | 0.00 | 0.08 | 0.00 | 78 | 1005.7 |
| 20260831123040 | 63 | 193 | 2.0 | 8.0 | 0.00 | 0.08 | 0.00 | 79 | 1005.7 |
| 20260831121546 | 63 | 203 | 2.0 | 6.0 | 0.00 | 0.08 | 0.00 | 79 | 1005.6 |
| 20260831120039 | 63 | 203 | 0.0 | 5.0 | 0.00 | 0.08 | 0.00 | 82 | 1005.5 |
| 20260831114535 | 63 | 236 | 0.0 | 1.0 | 0.00 | 0.08 | 0.00 | 83 | 1005.4 |
| 20260831113032 | 63 | 208 | 1.0 | 4.0 | 0.00 | 0.08 | 0.00 | 84 | 1005.4 |
| 20260831111532 | 63 | 221 | 0.0 | 3.0 | 0.00 | 0.08 | 0.08 | 85 | 1005.3 |
| 20260831110034 | 63 | 211 | 1.0 | 5.0 | 0.00 | 0.08 | 0.08 | 83 | 1005.1 |
| 20260831104531 | 62 | 266 | 0.0 | 6.0 | 0.00 | 0.08 | 0.08 | 85 | 1005.0 |
| 20260831103033 | 62 | 259 | 3.0 | 7.0 | 0.00 | 0.08 | 0.08 | 85 | 1005.1 |
| 20260831101530 | 62 | 284 | 3.0 | 8.0 | 0.00 | 0.08 | 0.08 | 84 | 1005.2 |
| 20260831100043 | 63 | 205 | 3.0 | 11.0 | 0.00 | 0.08 | 0.08 | 85 | 1005.1 |
| 20260831094530 | 62 | 190 | 1.0 | 4.0 | 0.00 | 0.08 | 0.08 | 87 | 1005.0 |
| 20260831093039 | 62 | 197 | 2.0 | 6.0 | 0.00 | 0.08 | 0.08 | 87 | 1004.8 |
| 20260831091528 | 62 | 159 | 3.0 | 9.0 | 0.00 | 0.08 | 0.08 | 89 | 1004.9 |
| 20260831090027 | 61 | 198 | 1.0 | 6.0 | 0.00 | 0.08 | 0.08 | 91 | 1004.8 |
| 20260831084526 | 61 | 194 | 1.0 | 8.0 | 0.00 | 0.08 | 0.08 | 92 | 1004.7 |
| 20260831083024 | 61 | 194 | 2.0 | 7.0 | 0.00 | 0.08 | 0.08 | 92 | 1004.5 |
| 20260831081526 | 61 | 203 | 1.0 | 7.0 | 0.00 | 0.08 | 0.08 | 93 | 1004.4 |
| 20260831080021 | 61 | 193 | 0.0 | 6.0 | 0.00 | 0.08 | 0.08 | 93 | 1004.4 |
| 20260831074525 | 61 | 218 | 1.0 | 6.0 | 0.00 | 0.08 | 0.08 | 93 | 1004.2 |
| 20260831073019 | 61 | 218 | 2.0 | 6.0 | 0.00 | 0.08 | 0.08 | 94 | 1004.2 |
| 20260831071517 | 61 | 207 | 1.0 | 6.0 | 0.00 | 0.08 | 0.08 | 94 | 1004.1 |
| 20260831070017 | 61 | 236 | 1.0 | 7.0 | 0.00 | 0.08 | 0.08 | 94 | 1004.0 |
| 20260831064516 | 61 | 211 | 1.0 | 6.0 | 0.00 | 0.08 | 0.08 | 95 | 1003.9 |